Weather History for KellyUSA Airport, TX

Change the Weather History Date:

Monday, November 19, 2012

  Actual Average Record
Temperature  
Mean Temperature 63 °F -  
Max Temperature 70 °F 69 °F 82 °F (2011)
Min Temperature 56 °F 49 °F 33 °F (2010)
Degree Days  
Heating Degree Days 2    
Growing Degree Days 13 (Base 50)    
Moisture  
Dew Point 55 °F    
Average Humidity 77    
Maximum Humidity 92    
Minimum Humidity 60    
Precipitation  
Precipitation 0.00 in - - ()
Sea Level Pressure  
Sea Level Pressure 30.19 in    
Wind  
Wind Speed 2 mph (SE)    
Max Wind Speed 10 mph    
Max Gust Speed -    
Visibility 10 miles    
Events Rain    
Averages and records for this station are not official NWS values.
T = Trace of Precipitation, MM = Missing Value Source: NWS Daily Summary

Daily Weather History Graph

Daily Weather History Graph

Search for Another Location

Airport:

Trip Planner

Search our weather history database for the weather conditions in past years. The results will help you decide how hot, cold, wet, or windy it might be!

Date:

Astronomy

Nov. 19, 2012 Rise Set
Actual Time 7:01 AM CST 5:37 PM CST
Civil Twilight 6:36 AM CST 6:02 PM CST
Nautical Twilight 6:07 AM CST 6:31 PM CST
Astronomical Twilight 5:39 AM CST 7:00 PM CST
Moon 12:15 PM CST (11/19) 11:53 PM CST (11/19)
Length of Visible Light 11h 26m
Length of Day
10h 35m
Waxing Crescent, 41% of the Moon is Illuminated
Nov 19
Waxing Crescent
Nov 20
First Quarter
Nov 28
Full
Dec 6
Last Quarter
Dec 13
New

Hourly Weather History & Observations

Time (CST) Temp. Dew Point Humidity Pressure Visibility Wind Dir Wind Speed Gust Speed Precip Events Conditions
12:29 AM 59.0 °F 51.8 °F 77% 30.21 in 10.0 mi Calm Calm - N/A   Mostly Cloudy
12:55 AM 58.6 °F 52.5 °F 80% 30.20 in 10.0 mi Calm Calm - N/A   Mostly Cloudy
1:00 AM 59.0 °F 51.8 °F 77% 30.20 in 10.0 mi Calm Calm - N/A   Scattered Clouds
1:53 AM 57.2 °F 51.8 °F 82% 30.19 in 10.0 mi Calm Calm - N/A   Mostly Cloudy
1:55 AM 56.8 °F 52.0 °F 84% 30.19 in 10.0 mi ESE 3.5 mph - N/A   Mostly Cloudy
2:55 AM 58.5 °F 53.6 °F 84% 30.18 in 10.0 mi ESE 4.6 mph - N/A   Overcast
3:55 AM 59.2 °F 53.8 °F 82% 30.19 in 10.0 mi East 3.5 mph - N/A   Overcast
4:55 AM 59.0 °F 53.6 °F 82% 30.18 in 10.0 mi East 5.8 mph - N/A   Overcast
5:55 AM 59.0 °F 53.4 °F 82% 30.18 in 10.0 mi East 5.8 mph - N/A   Overcast
6:55 AM 58.8 °F 53.1 °F 81% 30.21 in 10.0 mi Calm Calm - N/A   Overcast
7:55 AM 59.0 °F 53.2 °F 81% 30.22 in 10.0 mi East 4.6 mph - N/A   Overcast
8:55 AM 60.4 °F 53.8 °F 79% 30.24 in 10.0 mi Calm Calm - N/A   Overcast
9:55 AM 62.6 °F 54.5 °F 75% 30.25 in 10.0 mi Calm Calm - N/A   Overcast
10:39 AM 64.4 °F 55.4 °F 73% 30.25 in 10.0 mi SSE 3.5 mph - N/A Rain Light Rain
10:55 AM 64.9 °F 55.4 °F 71% 30.25 in 10.0 mi SSE 4.6 mph - N/A   Overcast
11:55 AM 68.0 °F 56.5 °F 67% 30.23 in 10.0 mi South 9.2 mph - N/A   Overcast
12:55 PM 70.5 °F 56.1 °F 60% 30.19 in 10.0 mi South 10.4 mph - N/A   Overcast
1:55 PM 70.0 °F 56.3 °F 62% 30.17 in 10.0 mi South 9.2 mph - N/A   Overcast
2:55 PM 70.3 °F 56.8 °F 62% 30.14 in 10.0 mi South 5.8 mph - N/A   Mostly Cloudy
3:55 PM 70.0 °F 56.7 °F 63% 30.14 in 10.0 mi Calm Calm - N/A   Overcast
4:27 PM 69.8 °F 57.2 °F 64% 30.14 in 10.0 mi Calm Calm - N/A   Overcast
4:55 PM 69.1 °F 57.0 °F 65% 30.13 in 10.0 mi Calm Calm - N/A   Overcast
5:41 PM 68.0 °F 57.2 °F 68% 30.15 in 10.0 mi Calm Calm - N/A   Overcast
5:55 PM 67.5 °F 57.9 °F 71% 30.16 in 10.0 mi Calm Calm - N/A   Mostly Cloudy
6:55 PM 63.9 °F 56.5 °F 77% 30.17 in 10.0 mi Calm Calm - N/A   Scattered Clouds
7:55 PM 60.6 °F 55.8 °F 84% 30.17 in 10.0 mi Calm Calm - N/A   Partly Cloudy
8:55 PM 59.2 °F 55.2 °F 87% 30.18 in 10.0 mi Calm Calm - N/A   Partly Cloudy
9:55 PM 56.5 °F 54.0 °F 91% 30.17 in 10.0 mi North 3.5 mph - N/A   Mostly Cloudy
10:55 PM 58.1 °F 55.0 °F 90% 30.17 in 10.0 mi Calm Calm - N/A   Scattered Clouds
11:16 PM 57.2 °F 53.6 °F 88% 30.17 in 10.0 mi Calm Calm - N/A   Mostly Cloudy
11:55 PM 57.7 °F 55.6 °F 92% 30.17 in 10.0 mi Calm Calm - N/A   Overcast